Retour au catalogue

TITAN 4B CENTAUR R/B

ActifGEO
NORAD 27938·ROCKET BODY·🇺🇸 United States

Lancé Sep 9, 2003 depuis Cape Canaveral Space Force Station

Loading…

TLE

FraisSource: Space-Track

Époque: Sep 13, 2026, 23:38 UTC

1 27938U 03041B   26256.98477315 -.00000006  00000-0  00000+0 0  9998
2 27938  15.7974  36.2945 0033799 118.9430 241.4212  1.00859807 25843

Suivez TITAN 4B CENTAUR R/B en temps réel avec AllMySat

Download on the App Store